User: anonymous   Login
Location: Fuglau
(48.6333°N, 15.5500°E)
Time: 20:37:42
(UTC+00:00)
Language:

Lacrosse 5 rocket - Orbit

View from above orbital plane
View from above orbital plane
View from above satellite
View from above satellite

Ground track
Ground track

The orbit data is extracted from the following two-line orbital elements,

1 28647U 05016B   20158.60007244 +.00000223 +00000-0 +30993-4 0  9993
2 28647 056.9971 284.6081 0129467 122.6025 238.7588 15.06002464058329
Epoch (UTC): 06 June 2020 14:24:06
Eccentricity: 0.0129467
inclination: 56.9971°
perigee height: 459 km
apogee height: 638 km
right ascension of ascending node: 284.6081°
argument of perigee: 122.6025°
revolutions per day: 15.06002464
mean anomaly at epoch: 238.7588°
orbit number at epoch: 5832

The dashed part of the orbit path shows where the satellite is in the earth's shadow,  

DLR